• In Czech Republic
  • List of Countries
  • For 7 days
  • Water Temperature
  • Satellite Maps
  • Weather Map
  • Weather Widgets
  • user-avatar
    Login

    Hourly Weather Indianapolis

    Today, 19 October, Friday

    Time Temperature Precipitation Wind Pressure Humidity
    00:00 +5°C° 0 mm 2 mps 751 mmHg 63%
    01:00 +5°C° 0 mm 2 mps 750 mmHg 64%
    02:00 +5°C° 0 mm 2 mps 750 mmHg 65%
    03:00 +5°C° 0 mm 2 mps 750 mmHg 66%
    04:00 +5°C° 0 mm 2 mps 749 mmHg 67%
    05:00 +5°C° 0 mm 2 mps 749 mmHg 69%
    06:00 +5°C° 0 mm 2 mps 748 mmHg 70%
    07:00 +5°C° 0 mm 3 mps 748 mmHg 67%
    08:00 +6°C° 0 mm 4 mps 748 mmHg 65%
    09:00 +7°C° 0 mm 4 mps 747 mmHg 62%
    10:00 +8°C° 0 mm 5 mps 746 mmHg 59%
    11:00 +9°C° 0 mm 5 mps 746 mmHg 57%
    12:00 +10°C° 0 mm 5 mps 745 mmHg 55%
    13:00 +11°C° 0 mm 6 mps 744 mmHg 54%
    14:00 +11°C° 0 mm 6 mps 743 mmHg 53%
    15:00 +13°C° 0 mm 6 mps 742 mmHg 52%
    16:00 +11°C° 0.1 mm 6 mps 742 mmHg 59%
    17:00 +10°C° 0.1 mm 6 mps 742 mmHg 65%
    18:00 +9°C° 0.1 mm 6 mps 742 mmHg 72%
    19:00 +9°C° 0 mm 6 mps 742 mmHg 76%
    20:00 +9°C° 0 mm 6 mps 742 mmHg 80%
    21:00 +9°C° 0 mm 6 mps 741 mmHg 84%
    22:00 +9°C° 0 mm 6 mps 741 mmHg 86%
    23:00 +9°C° 0 mm 6 mps 741 mmHg 88%

    Tomorrow, 20 October, Saturday

    Time Temperature Precipitation Wind Pressure Humidity
    00:00 +10°C° 0 mm 5 mps 741 mmHg 90%
    01:00 +10°C° 0 mm 5 mps 740 mmHg 91%
    02:00 +10°C° 0 mm 5 mps 740 mmHg 91%
    03:00 +10°C° 0 mm 5 mps 740 mmHg 92%
    04:00 +11°C° 0 mm 4 mps 741 mmHg 92%
    05:00 +10°C° 0 mm 4 mps 741 mmHg 93%
    06:00 +8°C° 0 mm 4 mps 741 mmHg 94%
    07:00 +9°C° 0 mm 5 mps 741 mmHg 82%
    08:00 +10°C° 0 mm 6 mps 741 mmHg 69%
    09:00 +11°C° 0 mm 7 mps 742 mmHg 57%
    10:00 +12°C° 0 mm 8 mps 741 mmHg 54%
    11:00 +12°C° 0 mm 8 mps 741 mmHg 52%
    12:00 +13°C° 0 mm 9 mps 741 mmHg 49%
    13:00 +12°C° 0.1 mm 10 mps 741 mmHg 50%
    14:00 +9°C° 0.1 mm 10 mps 742 mmHg 51%
    15:00 +8°C° 0.1 mm 11 mps 742 mmHg 52%
    16:00 +6°C° 0 mm 9 mps 743 mmHg 52%
    17:00 +5°C° 0 mm 8 mps 745 mmHg 51%
    18:00 +3°C° 0 mm 6 mps 746 mmHg 51%
    19:00 +2°C° 0 mm 5 mps 747 mmHg 53%
    20:00 +2°C° 0 mm 5 mps 748 mmHg 55%
    21:00 +1°C° 0 mm 4 mps 749 mmHg 58%
    22:00 +1°C° 0 mm 4 mps 749 mmHg 59%
    23:00 +1°C° 0 mm 3 mps 750 mmHg 61%

    Day after tomorrow, 21 October, Sunday

    Time Temperature Precipitation Wind Pressure Humidity
    00:00 +1°C° 0 mm 3 mps 750 mmHg 63%
    01:00 +1°C° 0 mm 3 mps 750 mmHg 64%
    02:00 0°C° 0 mm 3 mps 751 mmHg 64%
    03:00 0°C° 0 mm 3 mps 751 mmHg 65%
    04:00 +1°C° 0 mm 2 mps 751 mmHg 66%
    05:00 +1°C° 0 mm 2 mps 751 mmHg 67%
    06:00 -1°C° 0 mm 2 mps 752 mmHg 68%
    07:00 +2°C° 0 mm 2 mps 752 mmHg 65%
    08:00 +4°C° 0 mm 2 mps 752 mmHg 62%
    09:00 +6°C° 0 mm 2 mps 753 mmHg 58%
    10:00 +7°C° 0 mm 2 mps 752 mmHg 55%
    11:00 +8°C° 0 mm 2 mps 752 mmHg 51%
    12:00 +10°C° 0 mm 1 mps 751 mmHg 47%
    13:00 +10°C° 0 mm 2 mps 751 mmHg 47%
    14:00 +10°C° 0 mm 2 mps 750 mmHg 46%
    15:00 +10°C° 0 mm 3 mps 749 mmHg 45%
    16:00 +9°C° 0 mm 3 mps 749 mmHg 50%
    17:00 +7°C° 0 mm 2 mps 749 mmHg 55%
    18:00 +6°C° 0 mm 2 mps 749 mmHg 60%
    19:00 +5°C° 0 mm 2 mps 749 mmHg 62%
    20:00 +5°C° 0 mm 2 mps 749 mmHg 64%
    21:00 +3°C° 0 mm 3 mps 749 mmHg 66%
    22:00 +3°C° 0 mm 3 mps 749 mmHg 67%
    23:00 +3°C° 0 mm 3 mps 748 mmHg 68%

    22 October, Monday

    Time Temperature Precipitation Wind Pressure Humidity
    00:00 +2°C° 0 mm 3 mps 748 mmHg 68%
    01:00 +2°C° 0 mm 3 mps 748 mmHg 69%
    02:00 +2°C° 0 mm 3 mps 748 mmHg 70%
    03:00 +2°C° 0 mm 3 mps 747 mmHg 71%
    04:00 +2°C° 0 mm 3 mps 747 mmHg 72%
    05:00 +1°C° 0 mm 4 mps 747 mmHg 72%
    06:00 +1°C° 0 mm 4 mps 747 mmHg 73%
    07:00 +3°C° 0 mm 4 mps 747 mmHg 68%
    08:00 +5°C° 0 mm 5 mps 747 mmHg 63%
    09:00 +7°C° 0 mm 6 mps 747 mmHg 59%
    10:00 +8°C° 0 mm 6 mps 747 mmHg 56%
    11:00 +9°C° 0 mm 6 mps 747 mmHg 54%
    12:00 +11°C° 0 mm 6 mps 746 mmHg 51%
    13:00 +11°C° 0 mm 6 mps 746 mmHg 51%
    14:00 +12°C° 0 mm 5 mps 745 mmHg 51%
    15:00 +13°C° 0 mm 5 mps 745 mmHg 51%
    16:00 +10°C° 0 mm 5 mps 745 mmHg 57%
    17:00 +10°C° 0 mm 4 mps 745 mmHg 63%
    18:00 +7°C° 0 mm 4 mps 745 mmHg 69%
    19:00 +7°C° 0 mm 4 mps 745 mmHg 71%
    20:00 +6°C° 0 mm 4 mps 745 mmHg 72%
    21:00 +6°C° 0 mm 4 mps 745 mmHg 74%
    22:00 +6°C° 0 mm 4 mps 745 mmHg 75%
    23:00 +5°C° 0 mm 4 mps 745 mmHg 76%

    23 October, Tuesday

    Time Temperature Precipitation Wind Pressure Humidity
    00:00 +5°C° 0 mm 4 mps 745 mmHg 77%
    01:00 +5°C° 0 mm 3 mps 745 mmHg 78%
    02:00 +5°C° 0 mm 3 mps 745 mmHg 79%
    03:00 +5°C° 0 mm 3 mps 745 mmHg 81%
    04:00 +5°C° 0 mm 2 mps 746 mmHg 83%
    05:00 +5°C° 0 mm 2 mps 746 mmHg 84%
    06:00 +5°C° 0 mm 2 mps 746 mmHg 86%
    07:00 +7°C° 0 mm 2 mps 746 mmHg 82%
    08:00 +9°C° 0 mm 2 mps 747 mmHg 77%
    09:00 +12°C° 0 mm 2 mps 747 mmHg 72%
    10:00 +13°C° 0 mm 2 mps 747 mmHg 66%
    11:00 +15°C° 0 mm 2 mps 747 mmHg 59%
    12:00 +17°C° 0 mm 3 mps 747 mmHg 53%
    13:00 +17°C° 0 mm 3 mps 747 mmHg 50%
    14:00 +17°C° 0 mm 3 mps 747 mmHg 48%
    15:00 +17°C° 0 mm 3 mps 747 mmHg 45%
    16:00 +14°C° 0 mm 3 mps 747 mmHg 51%
    17:00 +12°C° 0 mm 3 mps 748 mmHg 57%
    18:00 +9°C° 0 mm 3 mps 748 mmHg 63%
    19:00 +9°C° 0 mm 3 mps 748 mmHg 69%
    20:00 +8°C° 0 mm 3 mps 749 mmHg 75%
    21:00 +7°C° 0 mm 3 mps 749 mmHg 81%
    22:00 +5°C° 0 mm 3 mps 750 mmHg 83%
    23:00 +5°C° 0 mm 3 mps 750 mmHg 85%

    24 October, Wednesday

    Time Temperature Precipitation Wind Pressure Humidity
    00:00 +4°C° 0 mm 3 mps 750 mmHg 87%
    01:00 +4°C° 0 mm 3 mps 750 mmHg 87%
    02:00 +3°C° 0 mm 3 mps 750 mmHg 88%
    03:00 +3°C° 0 mm 3 mps 751 mmHg 88%
    04:00 +3°C° 0 mm 3 mps 751 mmHg 88%
    05:00 +2°C° 0 mm 3 mps 751 mmHg 87%
    06:00 +2°C° 0 mm 3 mps 751 mmHg 86%
    07:00 +4°C° 0 mm 3 mps 751 mmHg 80%
    08:00 +5°C° 0 mm 3 mps 752 mmHg 74%
    09:00 +7°C° 0 mm 4 mps 752 mmHg 69%
    10:00 +9°C° 0 mm 3 mps 752 mmHg 63%
    11:00 +11°C° 0 mm 3 mps 751 mmHg 58%
    12:00 +12°C° 0 mm 3 mps 751 mmHg 52%
    13:00 +13°C° 0 mm 3 mps 751 mmHg 52%
    14:00 +13°C° 0 mm 3 mps 750 mmHg 51%
    15:00 +13°C° 0 mm 3 mps 750 mmHg 50%
    16:00 +11°C° 0 mm 3 mps 750 mmHg 56%
    17:00 +10°C° 0 mm 3 mps 750 mmHg 62%
    18:00 +8°C° 0 mm 2 mps 750 mmHg 68%
    19:00 +7°C° 0 mm 3 mps 750 mmHg 70%
    20:00 +7°C° 0 mm 3 mps 750 mmHg 72%
    21:00 +5°C° 0 mm 3 mps 750 mmHg 74%
    22:00 +5°C° 0 mm 3 mps 749 mmHg 75%
    23:00 +4°C° 0 mm 3 mps 749 mmHg 77%
    Show more